TimeMDT,TemperatureF,Dew PointF,Humidity,Sea Level PressureIn,VisibilityMPH,Wind Direction,Wind SpeedMPH,Gust SpeedMPH,PrecipitationIn,Events,Conditions,WindDirDegrees,DateUTC
12:36 AM,39.2,35.6,87,30.25,6.0,ENE,8.1,-,N/A,,Overcast,60,2012-10-06 06:36:00
12:53 AM,39.0,36.0,89,30.00,4.0,ENE,9.2,-,N/A,,Overcast,70,2012-10-06 06:53:00
1:09 AM,39.2,37.4,93,30.24,3.0,East,8.1,-,N/A,,Overcast,90,2012-10-06 07:09:00
1:16 AM,37.4,37.4,100,30.24,3.0,East,8.1,-,N/A,,Overcast,100,2012-10-06 07:16:00
1:53 AM,37.0,36.0,96,30.00,3.0,ESE,9.2,-,N/A,,Overcast,120,2012-10-06 07:53:00
2:02 AM,37.4,35.6,93,30.23,2.5,ESE,9.2,-,N/A,,Overcast,120,2012-10-06 08:02:00
2:32 AM,37.4,35.6,93,30.23,2.0,SSE,10.4,-,N/A,,Overcast,150,2012-10-06 08:32:00
2:53 AM,37.0,36.0,96,29.98,2.5,SSE,11.5,-,N/A,,Overcast,150,2012-10-06 08:53:00
3:33 AM,37.4,37.4,100,30.21,1.5,SSW,11.5,-,N/A,,Overcast,200,2012-10-06 09:33:00
3:53 AM,36.0,36.0,100,29.96,1.0,South,15.0,-,0.00,Rain,Light Rain,180,2012-10-06 09:53:00
4:07 AM,35.6,35.6,100,30.19,0.8,South,15.0,-,0.00,Rain,Light Rain,170,2012-10-06 10:07:00
4:18 AM,35.6,35.6,100,30.19,1.0,South,11.5,-,0.00,,Mist,180,2012-10-06 10:18:00
4:26 AM,35.6,35.6,100,30.19,0.5,South,16.1,-,0.00,Fog,Fog,180,2012-10-06 10:26:00
4:44 AM,35.6,35.6,100,30.18,0.2,South,18.4,-,0.00,Fog,Fog,180,2012-10-06 10:44:00
4:53 AM,35.1,35.1,100,29.95,0.2,South,20.7,-,0.00,Fog,Fog,180,2012-10-06 10:53:00
5:29 AM,35.6,35.6,100,30.17,0.5,South,21.9,-,N/A,Fog,Fog,180,2012-10-06 11:29:00
5:53 AM,35.1,35.1,100,29.95,0.5,South,23.0,-,0.00,Fog-Rain,Light Rain,170,2012-10-06 11:53:00
6:05 AM,35.6,35.6,100,30.17,1.2,South,24.2,-,0.00,,Overcast,170,2012-10-06 12:05:00
6:18 AM,35.6,35.6,100,30.16,0.5,South,23.0,-,0.00,Fog,Fog,170,2012-10-06 12:18:00
6:53 AM,35.1,35.1,100,29.98,0.2,South,21.9,29.9,0.00,Fog,Fog,180,2012-10-06 12:53:00
7:53 AM,36.0,36.0,100,30.01,0.2,South,23.0,-,N/A,Fog,Fog,170,2012-10-06 13:53:00
8:02 AM,35.6,35.6,100,30.16,1.0,South,23.0,29.9,N/A,,Mist,180,2012-10-06 14:02:00
8:19 AM,35.6,35.6,100,30.18,1.8,South,19.6,-,N/A,,Overcast,180,2012-10-06 14:19:00
8:34 AM,35.6,35.6,100,30.18,0.5,South,20.7,-,N/A,Fog,Fog,170,2012-10-06 14:34:00
8:43 AM,35.6,35.6,100,30.18,0.2,South,20.7,-,N/A,Fog,Fog,180,2012-10-06 14:43:00
8:53 AM,36.0,36.0,100,30.09,0.2,South,20.7,27.6,N/A,Fog,Fog,180,2012-10-06 14:53:00
9:53 AM,37.0,37.0,100,30.07,0.8,South,23.0,-,N/A,,Mist,190,2012-10-06 15:53:00
10:01 AM,37.4,37.4,100,30.18,1.5,South,23.0,28.8,N/A,,Overcast,190,2012-10-06 16:01:00
10:12 AM,37.4,37.4,100,30.18,3.0,South,20.7,-,N/A,,Overcast,190,2012-10-06 16:12:00
10:39 AM,39.2,37.4,93,30.18,10.0,SSW,21.9,26.5,N/A,,Overcast,200,2012-10-06 16:39:00
10:53 AM,39.0,37.0,93,30.06,10.0,SSW,20.7,26.5,N/A,,Overcast,200,2012-10-06 16:53:00
11:03 AM,39.2,37.4,93,30.17,10.0,SSW,19.6,-,N/A,,Overcast,200,2012-10-06 17:03:00
12:53 PM,44.1,37.9,79,30.02,10.0,South,17.3,28.8,N/A,,Overcast,190,2012-10-06 18:53:00
1:12 PM,41.0,37.4,87,30.14,10.0,SSE,18.4,-,N/A,,Overcast,150,2012-10-06 19:12:00
1:32 PM,39.2,37.4,93,30.14,1.5,SE,15.0,-,N/A,,Overcast,130,2012-10-06 19:32:00
1:36 PM,39.2,37.4,93,30.14,0.8,SE,15.0,-,N/A,,Overcast,130,2012-10-06 19:36:00
1:48 PM,39.2,37.4,93,30.14,2.0,SE,11.5,-,N/A,,Overcast,130,2012-10-06 19:48:00
1:53 PM,39.9,37.0,89,30.05,4.0,SE,12.7,-,N/A,,Overcast,140,2012-10-06 19:53:00
1:59 PM,39.2,37.4,93,30.14,1.8,SE,15.0,-,N/A,,Overcast,130,2012-10-06 19:59:00
2:23 PM,37.4,37.4,100,30.15,0.8,ESE,9.2,-,N/A,,Mist,120,2012-10-06 20:23:00
2:41 PM,37.4,37.4,100,30.15,1.2,SE,9.2,-,N/A,,Overcast,140,2012-10-06 20:41:00
2:50 PM,37.4,37.4,100,30.15,0.2,SE,12.7,-,N/A,Fog,Fog,130,2012-10-06 20:50:00
2:53 PM,37.0,37.0,100,30.08,0.2,ESE,11.5,-,N/A,Fog,Fog,120,2012-10-06 20:53:00
3:53 PM,37.0,36.0,96,30.09,0.5,East,8.1,-,N/A,Fog,Fog,100,2012-10-06 21:53:00
4:19 PM,37.4,35.6,93,30.17,1.0,East,10.4,-,N/A,,Overcast,90,2012-10-06 22:19:00
4:28 PM,35.6,35.6,100,30.17,0.8,East,10.4,-,0.00,,Overcast,80,2012-10-06 22:28:00
4:42 PM,35.6,35.6,100,30.17,1.0,East,12.7,-,0.00,Snow,Light Snow,80,2012-10-06 22:42:00
5:15 PM,35.6,33.8,93,30.18,1.0,ENE,11.5,-,N/A,,Overcast,60,2012-10-06 23:15:00
5:53 PM,34.0,34.0,100,30.15,1.0,ENE,10.4,-,N/A,,Overcast,70,2012-10-06 23:53:00
6:38 PM,33.8,33.8,100,30.22,2.5,ENE,9.2,-,N/A,,Overcast,70,2012-10-07 00:38:00
6:53 PM,34.0,33.1,96,30.18,2.5,East,11.5,-,N/A,,Overcast,80,2012-10-07 00:53:00
7:30 PM,33.8,33.8,100,30.24,3.0,East,10.4,-,N/A,,Overcast,80,2012-10-07 01:30:00
7:53 PM,34.0,33.1,96,30.20,4.0,East,9.2,-,N/A,,Overcast,90,2012-10-07 01:53:00
8:53 PM,34.0,33.1,96,30.22,9.0,East,5.8,-,N/A,,Overcast,100,2012-10-07 02:53:00
9:13 PM,33.8,33.8,100,30.26,10.0,East,4.6,-,N/A,,Overcast,90,2012-10-07 03:13:00
9:53 PM,34.0,33.1,96,30.21,10.0,East,5.8,-,N/A,,Overcast,80,2012-10-07 03:53:00
10:53 PM,33.1,32.0,96,30.21,10.0,ESE,6.9,-,N/A,,Overcast,120,2012-10-07 04:53:00
11:44 PM,33.8,32.0,93,30.26,10.0,South,4.6,-,N/A,,Overcast,170,2012-10-07 05:44:00
11:53 PM,33.1,30.9,92,30.18,10.0,SE,4.6,-,N/A,,Overcast,130,2012-10-07 05:53:00